Time,TemperatureF,DewpointF,PressureIn,WindDirection,WindDirectionDegrees,WindSpeedMPH,WindSpeedGustMPH,Humidity,HourlyPrecipIn,Conditions,Clouds,dailyrainin,SoftwareType,DateUTC
2013-01-04 00:12:00,25.0,11.0,-100.00,WNW,285,4.0,7.0,54,-99.99,,,0.00,,2013-01-04 00:12:00,
2013-01-04 00:22:00,25.0,11.0,-100.00,WNW,285,4.0,7.0,54,-99.99,,,0.00,,2013-01-04 00:22:00,
2013-01-04 01:12:00,15.0,8.0,-100.00,WNW,288,2.0,5.0,74,-99.99,,,0.00,,2013-01-04 01:12:00,
2013-01-04 01:22:00,15.0,8.0,-100.00,WNW,288,2.0,5.0,74,-99.99,,,0.00,,2013-01-04 01:22:00,
2013-01-04 01:32:00,15.0,8.0,-100.00,WNW,288,2.0,5.0,74,-99.99,,,0.00,,2013-01-04 01:32:00,
2013-01-04 01:42:00,15.0,8.0,-100.00,WNW,288,2.0,5.0,74,-99.99,,,0.00,,2013-01-04 01:42:00,
2013-01-04 01:52:00,15.0,8.0,-100.00,WNW,288,2.0,5.0,74,-99.99,,,0.00,,2013-01-04 01:52:00,
2013-01-04 02:12:00,6.0,4.0,-100.00,WNW,285,1.0,2.0,90,0.00,,,0.00,,2013-01-04 02:12:00,
2013-01-04 02:22:00,6.0,4.0,-100.00,WNW,285,1.0,2.0,90,0.00,,,0.00,,2013-01-04 02:22:00,
2013-01-04 02:32:00,6.0,4.0,-100.00,WNW,285,1.0,2.0,90,0.00,,,0.00,,2013-01-04 02:32:00,
2013-01-04 02:42:00,6.0,4.0,-100.00,WNW,285,1.0,2.0,90,0.00,,,0.00,,2013-01-04 02:42:00,
2013-01-04 02:52:00,6.0,4.0,-100.00,WNW,285,1.0,2.0,90,0.00,,,0.00,,2013-01-04 02:52:00,
2013-01-04 03:12:00,2.0,-1.0,-100.00,North,356,1.0,1.0,87,0.00,,,0.00,,2013-01-04 03:12:00,
2013-01-04 03:22:00,2.0,-1.0,-100.00,North,356,1.0,1.0,87,0.00,,,0.00,,2013-01-04 03:22:00,
2013-01-04 03:32:00,2.0,-1.0,-100.00,North,356,1.0,1.0,87,0.00,,,0.00,,2013-01-04 03:32:00,
2013-01-04 03:42:00,2.0,-1.0,-100.00,North,356,1.0,1.0,87,0.00,,,0.00,,2013-01-04 03:42:00,
2013-01-04 03:52:00,2.0,-1.0,-100.00,North,356,1.0,1.0,87,0.00,,,0.00,,2013-01-04 03:52:00,
2013-01-04 04:12:00,0.0,-3.0,-100.00,NNE,17,1.0,2.0,86,0.00,,,-99.99,,2013-01-04 04:12:00,
2013-01-04 04:22:00,0.0,-3.0,-100.00,NNE,17,1.0,2.0,86,0.00,,,-99.99,,2013-01-04 04:22:00,
2013-01-04 04:32:00,0.0,-3.0,-100.00,NNE,17,1.0,2.0,86,0.00,,,-99.99,,2013-01-04 04:32:00,
2013-01-04 04:42:00,0.0,-3.0,-100.00,NNE,17,1.0,2.0,86,0.00,,,-99.99,,2013-01-04 04:42:00,
2013-01-04 04:52:00,0.0,-3.0,-100.00,NNE,17,1.0,2.0,86,0.00,,,-99.99,,2013-01-04 04:52:00,
2013-01-04 05:22:00,-2.0,-5.0,-100.00,NW,311,1.0,2.0,84,0.00,,,0.00,,2013-01-04 05:22:00,
2013-01-04 05:33:00,-2.0,-5.0,-100.00,NW,311,1.0,2.0,84,0.00,,,0.00,,2013-01-04 05:33:00,
2013-01-04 05:42:00,-2.0,-5.0,-100.00,NW,311,1.0,2.0,84,0.00,,,0.00,,2013-01-04 05:42:00,
2013-01-04 05:52:00,-2.0,-5.0,-100.00,NW,311,1.0,2.0,84,0.00,,,0.00,,2013-01-04 05:52:00,
2013-01-04 06:12:00,-6.0,-10.0,-100.00,North,349,1.0,2.0,83,0.00,,,0.00,,2013-01-04 06:12:00,
2013-01-04 06:22:00,-6.0,-10.0,-100.00,North,349,1.0,2.0,83,0.00,,,0.00,,2013-01-04 06:22:00,
2013-01-04 06:32:00,-6.0,-10.0,-100.00,North,349,1.0,2.0,83,0.00,,,0.00,,2013-01-04 06:32:00,
2013-01-04 06:42:00,-6.0,-10.0,-100.00,North,349,1.0,2.0,83,0.00,,,0.00,,2013-01-04 06:42:00,
2013-01-04 06:52:00,-6.0,-10.0,-100.00,North,349,1.0,2.0,83,0.00,,,0.00,,2013-01-04 06:52:00,
2013-01-04 07:22:00,-6.0,-10.0,-100.00,NW,317,2.0,5.0,83,0.00,,,0.00,,2013-01-04 07:22:00,
2013-01-04 07:32:00,-6.0,-10.0,-100.00,NW,317,2.0,5.0,83,0.00,,,0.00,,2013-01-04 07:32:00,
2013-01-04 07:42:00,-6.0,-10.0,-100.00,NW,317,2.0,5.0,83,0.00,,,0.00,,2013-01-04 07:42:00,
2013-01-04 07:52:00,-6.0,-10.0,-100.00,NW,317,2.0,5.0,83,0.00,,,0.00,,2013-01-04 07:52:00,
2013-01-04 08:12:00,-8.0,-13.0,-100.00,North,5,1.0,2.0,81,0.00,,,0.00,,2013-01-04 08:12:00,
2013-01-04 08:22:00,-8.0,-13.0,-100.00,North,5,1.0,2.0,81,0.00,,,0.00,,2013-01-04 08:22:00,
2013-01-04 08:32:00,-8.0,-13.0,-100.00,North,5,1.0,2.0,81,0.00,,,0.00,,2013-01-04 08:32:00,
2013-01-04 08:42:00,-8.0,-13.0,-100.00,North,5,1.0,2.0,81,0.00,,,0.00,,2013-01-04 08:42:00,
2013-01-04 08:52:00,-8.0,-13.0,-100.00,North,5,1.0,2.0,81,0.00,,,0.00,,2013-01-04 08:52:00,